Temperature
20 18 16 16 15 15 15 15 15 15 15 15 15 14 14 14 13 14 14 13 13 13 13 13 13 13 13 13 13 13 13 13 13 13 13 13 13 13 13 13 13 12 12
20 19 16 16 15 15 15 15 15 14 14 15 14 14 13 13 12 12 13 12 12 12 12 12 13 13 13 13 13 12 12 12 12 12 13 13 13 13 12 12 12 12 12
20 19 17 16 15 15 15 15 14 14 14 14 13 12 12 12 12 12 12 12 12 12 12 12 13 13 13 13 12 12 12 12 12 12 13 13 13 12 12 12 12 12 11
20 20 18 16 16 15 15 15 14 14 14 14 12 12 12 12 12 12 12 12 12 12 13 13 13 13 13 13 12 12 12 13 13 13 13 13 13 13 12 11 11 11 11
20 20 19 17 16 15 15 15 14 14 14 14 12 12 11 12 12 12 12 12 13 13 14 14 14 13 13 13 13 13 13 13 13 13 14 13 13 13 13 12 11 11 11
20 20 19 17 16 15 15 14 14 14 14 14 13 12 12 12 12 12 12 12 13 13 14 14 14 14 14 14 14 14 14 14 14 13 14 14 14 14 13 13 12 12 11
20 19 19 17 16 15 15 14 14 14 14 14 13 12 12 12 12 12 12 12 13 13 14 14 14 14 14 14 14 14 14 13 13 13 13 13 13 13 13 13 13 12 12
19 19 18 17 16 15 15 14 14 14 14 14 14 13 12 12 12 12 12 13 13 13 13 14 14 14 14 14 13 13 13 13 13 13 13 13 13 13 13 13 12 12 12
19 19 18 17 16 15 15 14 14 14 14 14 14 13 13 12 12 12 13 13 13 13 13 13 13 13 13 13 13 13 13 12 12 12 12 12 12 12 12 12 12 12 12
18 18 18 17 17 16 15 15 14 14 14 14 14 14 13 13 13 13 13 13 13 13 13 13 13 13 13 13 13 13 13 12 12 12 12 12 12 12 12 12 12 12 12
18 18 18 18 17 16 15 15 14 14 14 14 14 14 14 13 13 13 13 13 13 13 13 13 13 13 13 12 12 12 12 12 12 12 12 12 12 12 12 12 12 12 12
20 19 18 18 17 17 16 15 14 14 14 14 14 14 14 13 13 12 12 13 13 13 12 12 12 12 12 12 12 12 12 12 12 12 12 12 12 12 12 12 12 12 12
20 19 19 19 18 17 16 16 15 14 14 14 13 13 13 13 13 12 12 12 12 12 12 12 12 12 12 12 12 12 12 12 12 12 12 12 12 12 11 11 11 12 11
20 20 19 19 18 17 17 16 15 15 14 14 13 13 13 13 12 12 12 12 12 12 12 12 12 12 11 11 12 12 12 12 12 11 11 11 11 11 11 11 11 11 11
20 20 20 19 18 18 17 16 15 15 14 14 13 13 13 12 12 12 12 12 12 12 11 11 11 11 11 11 11 12 12 11 11 11 11 11 11 11 10 10 10 10 10
20 20 20 20 19 18 17 16 15 15 14 13 13 13 13 12 12 12 12 12 11 11 11 11 11 11 11 11 11 11 11 11 11 11 11 10 10 10 9 9 9 9 9
20 20 20 20 19 18 17 16 15 14 14 13 13 13 13 13 12 12 12 11 11 11 11 11 11 11 11 11 11 11 11 11 10 10 10 10 9 9 9 9 9 9 9
20 20 20 20 20 19 17 16 15 14 14 14 13 13 13 13 12 12 12 11 11 11 11 11 11 11 11 11 11 10 10 10 10 9 9 9 8 8 8 8 8 9 9
20 20 20 20 19 18 17 16 15 14 14 14 14 13 13 13 12 12 12 12 11 11 11 11 11 11 10 10 10 10 9 10 9 8 8 8 8 8 8 8 8 8 8
19 19 19 19 19 18 16 15 15 14 14 14 13 13 13 12 12 12 12 11 11 11 11 11 10 10 9 9 9 9 9 9 8 8 7 7 7 7 7 7 7 7 7
19 19 19 18 18 17 16 15 15 14 14 13 13 13 12 12 12 11 11 11 11 11 11 10 9 9 8 8 8 8 8 8 8 7 7 7 7 7 7 6 6 6 6
18 18 18 18 17 16 16 15 15 14 14 13 13 12 12 12 11 11 11 11 11 10 10 9 8 8 7 6 6 6 6 6 6 6 6 6 5 5 5 5 5 5 5
17 17 18 17 16 15 15 15 14 14 13 13 12 12 11 11 11 11 11 10 10 10 9 8 7 6 6 5 4 3 3 2 3 4 4 4 4 4 4 4 4 4 4
17 17 17 16 15 15 14 14 14 14 13 12 12 12 11 11 10 10 10 10 9 9 8 7 6 5 5 4 4 3 2 1 -0 0 2 3 3 3 3 3 3 3 3
17 16 16 15 14 14 13 13 13 13 13 12 11 11 11 10 10 10 9 9 8 8 7 6 5 5 4 3 3 2 2 1 -1 -2 -2 -0 1 2 2 2 2 2 1
16 15 15 14 13 13 12 13 13 13 12 12 11 11 10 10 9 9 8 8 7 7 6 5 4 4 3 3 2 2 1 -0 -1 -3 -4 -4 -4 -2 -1 0 0 0 -0
Wind_Speed
6 8 18 18 17 16 15 13 12 10 9 8 8 8 9 9 9 7 7 5 5 5 5 5 4 4 7 8 9 8 7 6 6 6 7 7 7 6 5 3 2 3 4
8 12 19 19 18 17 15 13 11 10 9 8 8 8 8 8 7 6 5 4 4 3 4 5 5 6 6 7 7 6 5 4 5 5 7 7 8 8 6 4 3 3 5
10 15 18 19 19 18 16 14 11 10 9 8 8 8 8 8 6 6 5 4 3 3 3 4 5 6 7 7 6 4 3 3 4 5 6 7 9 8 7 4 5 5 6
11 15 16 19 19 18 16 14 12 10 9 9 8 8 8 7 6 6 4 3 3 3 3 4 4 5 5 5 5 3 2 3 4 4 4 6 7 8 8 5 6 7 7
10 13 17 20 19 18 16 14 12 11 10 9 8 8 8 8 7 6 4 4 3 3 3 3 3 3 3 3 2 3 3 4 4 3 4 6 7 8 8 8 8 8 7
9 12 16 20 19 18 17 15 13 11 10 9 8 8 7 7 8 6 5 4 3 3 3 2 2 1 1 1 2 4 4 5 4 4 6 7 7 9 10 10 9 9 9
9 9 14 19 19 19 17 16 14 12 10 9 9 8 6 6 7 7 7 5 4 2 1 0 1 1 2 3 4 5 6 6 6 6 7 9 10 11 11 11 11 11 11
10 9 12 18 18 18 18 16 15 13 11 9 9 9 7 6 6 7 7 6 4 3 2 3 3 4 5 6 7 8 8 8 9 7 9 11 12 12 11 11 12 13 13
8 7 8 13 16 18 18 16 15 13 11 10 9 8 5 3 3 7 7 5 5 5 5 5 6 7 7 8 8 9 10 10 9 9 10 11 11 12 13 13 13 14 15
6 8 7 9 11 13 15 16 15 14 12 10 9 7 5 2 2 4 4 5 6 6 6 7 7 8 8 9 9 9 10 9 7 8 9 10 12 13 14 14 14 15 15
7 8 8 7 8 10 12 14 15 14 12 10 8 8 6 3 0 1 2 5 7 7 7 8 8 8 8 7 8 8 8 6 6 7 8 10 11 12 13 13 13 13 13
11 11 10 10 8 8 10 11 11 11 10 9 7 7 6 4 1 2 4 5 6 6 6 6 6 6 6 7 8 8 7 8 7 7 8 10 10 11 11 12 13 13 13
9 10 11 12 10 9 6 8 8 9 9 8 8 7 5 3 1 1 2 3 3 3 3 4 5 6 7 7 7 8 8 8 7 8 9 10 10 10 10 12 13 14 14
8 10 11 13 12 11 8 6 7 6 6 6 8 8 6 3 2 1 1 2 3 3 3 4 5 7 8 8 8 7 8 8 8 8 8 11 12 12 13 15 16 17 17
10 11 12 12 14 12 10 7 6 6 6 8 8 8 8 4 3 3 3 4 5 6 5 4 5 6 6 7 7 7 6 7 8 8 9 13 16 17 16 16 17 17 17
11 11 11 14 14 13 12 9 8 6 7 7 7 9 10 8 6 4 4 4 6 7 7 6 6 5 4 4 5 5 5 7 7 7 9 12 16 18 18 17 17 17 17
10 8 11 13 14 15 13 11 7 6 7 6 6 9 10 10 9 7 5 5 5 8 8 7 6 6 5 5 6 5 4 6 6 6 9 11 13 16 17 18 18 18 17
8 7 9 11 13 14 11 9 6 6 7 6 8 10 11 12 12 9 6 5 7 8 6 5 5 5 6 6 6 5 4 4 4 5 7 9 10 12 15 18 19 19 18
8 7 7 9 12 12 11 9 8 7 7 7 9 10 12 12 13 11 7 6 9 7 5 5 6 5 5 7 7 5 4 4 2 3 4 6 7 10 12 15 19 19 18
6 6 7 8 11 12 11 11 9 10 8 7 8 10 13 13 14 12 8 8 8 6 6 5 6 6 5 6 6 7 4 3 2 2 3 3 4 8 13 14 16 17 17
6 7 8 11 12 14 12 11 9 8 8 8 8 12 13 14 14 12 7 6 7 7 7 6 4 6 6 6 5 6 5 3 3 1 2 1 2 8 14 15 17 15 13
7 8 9 12 13 12 10 7 6 7 7 8 8 10 13 14 13 12 8 7 6 6 8 8 6 3 5 6 4 4 6 6 5 4 4 3 4 7 9 16 16 14 15
8 10 10 11 11 11 12 13 13 9 7 6 8 7 9 13 14 13 11 8 6 7 6 6 6 5 4 4 5 4 3 4 5 5 5 4 5 5 6 10 12 15 18
9 9 10 11 12 13 14 17 19 12 9 6 7 8 8 12 13 13 12 10 6 6 6 6 5 4 4 3 3 2 2 3 4 6 5 4 5 8 8 9 10 15 17
10 10 11 12 12 12 11 15 15 13 11 10 10 11 10 8 10 12 12 9 6 5 6 6 5 4 3 2 1 2 2 2 3 4 7 6 7 6 6 9 8 9 14
10 11 12 13 12 10 11 12 17 19 18 15 12 10 8 6 6 8 10 8 7 5 5 4 4 4 2 1 0 1 2 2 3 4 6 12 12 7 9 9 8 6 10
Wind_Direction
208 191 170 158 153 149 147 144 140 137 136 136 140 144 141 135 124 114 108 103 94 76 63 58 58 98 123 125 120 109 94 77 60 46 35 25 10 349 325 311 306 320 306
165 174 171 161 157 154 153 149 145 142 141 143 145 150 148 140 131 124 116 107 98 77 56 48 50 70 93 108 111 105 90 64 43 32 31 21 1 343 318 280 270 285 292
152 167 169 162 160 158 157 153 151 150 149 150 149 146 146 140 135 128 124 107 87 69 56 50 50 60 67 80 90 90 74 40 16 12 21 8 353 343 329 270 250 265 277
157 164 165 164 163 161 160 158 158 158 158 158 156 152 149 147 145 141 127 102 76 69 67 63 57 55 56 61 63 53 30 358 351 358 4 351 342 331 323 287 248 250 265
157 161 164 166 166 165 164 164 165 166 167 168 167 164 160 164 161 155 141 114 95 93 93 86 74 65 49 34 18 342 324 323 338 350 333 327 323 317 310 295 274 267 273
156 160 167 169 170 169 168 170 172 173 175 176 177 177 179 182 181 172 157 144 138 132 122 110 96 77 19 328 315 309 310 314 323 308 302 302 300 302 298 289 284 276 267
160 164 171 174 175 172 173 175 177 178 180 182 184 186 191 196 197 190 171 171 176 179 176 183 308 311 303 300 299 301 305 312 303 288 285 285 285 292 290 284 279 276 272
167 167 176 181 179 177 178 180 181 182 183 186 191 196 206 221 218 189 180 189 208 229 261 294 309 311 309 307 307 310 314 314 306 294 285 281 284 291 289 282 276 273 270
169 168 178 186 184 181 181 183 183 183 184 188 194 199 199 213 211 181 184 206 234 258 284 303 311 312 311 311 312 313 311 307 300 289 288 285 290 295 291 284 277 271 267
178 182 181 186 183 181 182 184 183 182 185 189 191 183 168 171 178 178 199 233 257 276 293 304 309 314 318 319 319 319 317 314 307 300 295 297 304 303 299 296 292 284 277
196 196 189 187 182 177 177 183 182 183 186 188 186 176 169 174 186 255 273 276 278 286 299 310 320 331 339 339 339 341 344 343 330 319 314 318 323 320 321 324 325 321 311
203 201 197 196 189 177 181 178 177 178 183 182 177 175 174 182 215 289 307 304 298 306 320 329 343 1 10 4 2 8 9 4 1 348 344 349 348 342 342 346 348 347 345
204 200 199 200 194 186 179 169 171 172 175 180 182 181 175 170 191 314 341 352 11 16 13 10 23 28 31 25 18 20 22 23 17 6 2 6 8 6 9 15 19 19 17
203 204 199 198 197 194 183 174 172 171 174 180 187 183 167 155 148 115 72 46 49 52 50 46 47 44 41 35 30 27 28 22 13 9 14 28 38 38 39 37 33 28 24
217 212 200 194 196 193 186 179 178 180 182 185 183 184 175 157 146 124 98 80 68 67 63 54 51 47 38 30 26 25 23 15 14 24 35 47 51 47 44 37 29 22 17
227 220 200 195 193 188 188 184 181 180 177 174 178 179 171 156 141 125 100 79 66 66 65 62 57 47 33 18 14 16 20 14 20 40 53 55 55 49 44 35 25 16 9
232 219 201 196 187 185 185 181 172 168 163 160 157 155 148 139 129 115 100 81 67 71 70 61 55 46 30 14 3 2 17 15 28 50 63 62 59 48 39 30 20 11 4
225 210 201 191 183 181 176 164 152 147 142 135 131 127 123 121 119 108 99 86 76 71 65 61 39 37 22 7 347 341 4 3 22 57 62 67 66 53 36 27 18 6 358
208 193 183 176 172 167 151 137 126 120 115 113 112 111 110 110 109 104 96 88 81 69 51 56 47 39 21 357 335 330 353 348 2 59 57 64 65 53 36 23 11 360 352
186 171 159 150 148 141 130 120 112 103 99 96 99 103 106 105 104 100 91 83 78 69 52 48 54 42 28 350 332 328 332 339 356 57 42 52 52 39 29 16 2 348 343
167 157 148 144 145 144 141 136 129 118 109 99 96 100 102 103 101 98 95 81 73 73 61 46 49 37 20 1 1 339 336 352 354 10 15 357 24 22 18 2 345 330 325
174 162 150 151 152 151 146 132 121 118 106 98 97 94 98 101 99 96 92 87 78 78 62 48 47 47 22 25 30 4 347 338 343 346 339 350 11 11 2 341 323 313 312
180 170 159 153 147 138 131 122 117 108 105 103 101 94 90 95 94 95 91 87 78 77 73 60 53 63 31 14 41 56 13 312 311 311 319 339 353 351 331 314 307 307 305
181 163 150 146 142 142 142 142 143 142 135 128 124 112 96 91 92 92 89 85 80 76 72 62 62 63 65 29 4 29 235 239 286 308 300 307 323 316 301 307 303 296 294
161 153 145 140 140 144 145 146 137 127 122 125 118 109 98 86 85 87 86 83 78 75 73 65 60 58 71 78 7 321 312 290 247 269 293 303 304 282 288 291 289 286 286
148 145 144 142 139 138 137 138 137 134 135 133 126 116 106 95 82 80 83 81 79 75 70 64 61 56 59 56 315 257 249 273 286 277 288 306 306 296 285 280 276 274 286
Height
1496 1497 1500 1502 1504 1505 1507 1508 1509 1510 1510 1510 1511 1511 1512 1512 1513 1513 1513 1514 1514 1514 1515 1516 1518 1519 1520 1520 1521 1521 1522 1522 1522 1521 1520 1520 1520 1520 1520 1520 1521 1521 1522
1496 1497 1499 1501 1503 1505 1506 1508 1509 1510 1510 1509 1509 1510 1511 1512 1513 1513 1513 1513 1513 1514 1514 1516 1517 1518 1519 1520 1520 1521 1521 1521 1521 1520 1519 1519 1519 1519 1520 1520 1520 1520 1521
1495 1496 1498 1501 1503 1505 1506 1508 1509 1509 1509 1509 1509 1510 1511 1513 1513 1514 1514 1514 1514 1514 1514 1515 1516 1518 1518 1519 1519 1520 1520 1520 1519 1519 1519 1518 1518 1518 1519 1519 1519 1520 1520
1495 1496 1498 1501 1503 1505 1507 1508 1509 1509 1509 1509 1510 1511 1512 1513 1514 1514 1515 1514 1514 1514 1514 1514 1515 1516 1517 1518 1518 1519 1518 1518 1518 1518 1518 1517 1517 1517 1518 1518 1518 1519 1519
1494 1496 1498 1500 1503 1505 1507 1508 1509 1510 1510 1510 1510 1511 1513 1514 1515 1515 1515 1515 1515 1514 1514 1514 1515 1516 1517 1517 1518 1518 1518 1518 1518 1517 1517 1516 1516 1516 1516 1517 1517 1518 1518
1494 1496 1498 1500 1503 1505 1506 1508 1509 1510 1510 1510 1511 1512 1513 1515 1515 1516 1516 1516 1516 1515 1515 1515 1516 1516 1517 1517 1517 1517 1517 1517 1517 1517 1516 1516 1515 1515 1514 1515 1515 1515 1515
1495 1496 1498 1500 1502 1504 1506 1508 1509 1510 1510 1511 1511 1512 1514 1515 1516 1517 1517 1517 1516 1516 1516 1516 1516 1517 1517 1517 1517 1517 1517 1517 1517 1516 1516 1515 1514 1514 1513 1513 1513 1513 1513
1495 1496 1498 1500 1502 1504 1506 1508 1509 1510 1511 1511 1512 1512 1514 1515 1516 1517 1518 1517 1517 1517 1517 1517 1517 1517 1517 1517 1517 1517 1516 1516 1516 1515 1515 1514 1513 1513 1512 1511 1511 1511 1511
1495 1497 1498 1500 1502 1504 1506 1508 1509 1510 1511 1511 1512 1512 1514 1515 1516 1517 1518 1518 1518 1518 1518 1517 1517 1517 1517 1517 1516 1516 1515 1515 1515 1514 1513 1513 1512 1511 1510 1510 1510 1509 1508
1495 1496 1498 1499 1501 1503 1505 1507 1509 1510 1511 1511 1512 1512 1513 1515 1516 1517 1518 1518 1518 1518 1518 1518 1517 1517 1517 1516 1516 1515 1515 1514 1513 1513 1512 1511 1510 1509 1509 1508 1507 1507 1506
1493 1495 1496 1498 1500 1502 1504 1506 1508 1509 1510 1511 1511 1512 1513 1514 1516 1517 1517 1518 1518 1517 1517 1517 1517 1516 1516 1516 1515 1514 1514 1513 1512 1511 1510 1509 1508 1507 1506 1505 1504 1503 1502
1491 1493 1495 1497 1498 1500 1502 1504 1506 1508 1509 1510 1511 1512 1513 1514 1515 1516 1517 1517 1517 1517 1517 1517 1516 1516 1515 1515 1514 1513 1512 1511 1509 1508 1507 1506 1505 1504 1503 1502 1501 1500 1499
1490 1492 1493 1495 1496 1498 1500 1502 1504 1506 1507 1509 1510 1511 1512 1514 1515 1516 1516 1517 1516 1516 1516 1516 1515 1514 1514 1513 1512 1511 1509 1508 1506 1505 1504 1503 1501 1500 1499 1498 1497 1496 1495
1488 1489 1491 1493 1494 1496 1498 1500 1502 1504 1506 1507 1509 1511 1512 1513 1514 1515 1516 1516 1516 1515 1515 1515 1514 1513 1512 1510 1509 1508 1506 1505 1503 1502 1501 1499 1498 1497 1496 1494 1493 1492 1491
1485 1487 1488 1490 1491 1493 1495 1498 1500 1502 1504 1506 1508 1509 1511 1512 1513 1514 1514 1515 1514 1514 1514 1513 1512 1511 1509 1508 1507 1505 1503 1502 1500 1498 1497 1495 1494 1493 1492 1490 1489 1488 1487
1482 1483 1484 1486 1488 1490 1492 1495 1498 1500 1503 1505 1506 1508 1510 1511 1512 1513 1513 1513 1513 1512 1512 1511 1509 1508 1507 1505 1504 1502 1500 1498 1496 1494 1493 1491 1490 1489 1488 1486 1485 1484 1483
1478 1479 1480 1481 1483 1486 1489 1492 1495 1498 1500 1503 1505 1506 1508 1510 1511 1511 1511 1511 1511 1510 1509 1508 1507 1505 1503 1502 1500 1498 1496 1494 1492 1490 1489 1487 1486 1485 1484 1483 1482 1480 1479
1472 1473 1475 1476 1478 1481 1484 1488 1492 1495 1498 1500 1502 1504 1506 1507 1508 1509 1509 1509 1509 1508 1507 1506 1504 1502 1500 1498 1496 1494 1492 1490 1488 1486 1485 1484 1483 1482 1481 1480 1478 1476 1474
1466 1467 1469 1471 1473 1476 1480 1484 1488 1491 1494 1497 1499 1501 1503 1505 1506 1507 1507 1507 1507 1506 1505 1503 1501 1498 1496 1494 1492 1490 1488 1486 1484 1483 1482 1481 1480 1479 1478 1476 1474 1471 1469
1460 1462 1464 1466 1468 1471 1474 1479 1483 1487 1490 1493 1496 1498 1500 1502 1504 1505 1505 1505 1505 1504 1502 1500 1498 1495 1492 1490 1488 1486 1484 1482 1481 1480 1479 1479 1477 1476 1474 1472 1469 1466 1463
1455 1457 1459 1461 1463 1466 1469 1473 1478 1482 1486 1490 1493 1496 1498 1500 1501 1503 1503 1503 1503 1501 1499 1497 1495 1492 1489 1487 1484 1482 1481 1480 1479 1478 1477 1476 1474 1472 1469 1467 1464 1461 1457
1450 1452 1455 1457 1459 1461 1465 1469 1474 1479 1483 1487 1490 1493 1496 1498 1500 1501 1501 1501 1500 1498 1496 1494 1492 1490 1487 1484 1482 1479 1477 1476 1475 1475 1474 1472 1469 1466 1463 1460 1457 1454 1450
1446 1448 1450 1453 1455 1458 1462 1466 1471 1476 1480 1484 1488 1491 1494 1496 1498 1499 1499 1498 1497 1496 1494 1491 1489 1488 1486 1484 1482 1481 1479 1475 1471 1466 1466 1464 1461 1458 1456 1452 1450 1447 1443
1441 1444 1447 1449 1452 1455 1459 1463 1467 1472 1477 1481 1485 1488 1491 1494 1495 1496 1496 1496 1495 1493 1491 1489 1487 1486 1484 1483 1481 1480 1479 1476 1470 1461 1457 1457 1454 1450 1448 1445 1442 1439 1436
1436 1439 1442 1445 1449 1453 1457 1462 1467 1471 1475 1479 1483 1486 1489 1492 1493 1494 1494 1493 1492 1491 1489 1488 1486 1484 1482 1480 1478 1476 1474 1472 1468 1462 1452 1446 1443 1442 1440 1437 1434 1431 1428
1430 1435 1439 1442 1446 1450 1456 1461 1465 1469 1473 1476 1480 1484 1488 1490 1491 1492 1492 1491 1490 1488 1487 1486 1484 1482 1480 1478 1476 1473 1471 1468 1464 1460 1450 1441 1435 1431 1430 1428 1427 1424 1421